[[{"header":{"parameterUnit":"m.s-1","parameterCategory":1,"la1":30.2991,"la2":30.254,"lo1":-89.0895,"lo2":-89.0444,"dy":0.0017,"dx":0.0017,"nx":28,"ny":28,"refTime":"2025-08-04T03:00:00:Z","depth":0,"parameterNumber":2,"parameterNumberName":"U-component_of_WINDS"},"data":[0,0,0,0,0,0,0,0,0,0,0,0,0,0,0,0,0,0,0,0,0,0,0,0,0,0,0,0,0,0,0,0,0,0,0,0,0,0,0,0,0,0,0,0,0,0,0,0,0,0,0,0,0,0,0,0,0,0,-2.6108,-2.6108,0,-2.6078,-2.6078,-2.6078,-2.6024,-2.6023,-2.6022,-2.6021,-2.5988,-2.5988,-2.5989,0,0,0,0,0,0,0,0,0,0,0,0,0,-2.6119,-2.6119,-2.6108,-2.6108,-2.6108,-2.6078,-2.6078,-2.6077,-2.6024,-2.6023,-2.6022,-2.6021,-2.5988,-2.5988,-2.5989,0,0,0,0,0,0,0,0,0,0,0,0,0,-2.6104,-2.6119,-2.6108,-2.6077,-2.6074,-2.6078,-2.6078,-2.6077,-2.6025,-2.6023,-2.6022,-2.602,-2.5988,-2.5988,-2.5989,-2.602,0,0,-2.5989,-2.5989,0,0,0,0,0,0,0,0,-2.6105,-2.6104,-2.6082,-2.608,-2.6076,-2.6053,-2.607,-2.6058,-2.6025,-2.6043,-2.6021,-2.6019,-2.6011,-2.6009,-2.6007,-2.6018,-2.6017,-2.5989,-2.5989,-2.5989,-2.5989,0,0,0,0,0,0,0,-2.6106,-2.6105,-2.6096,-2.6082,-2.6078,-2.6065,-2.6061,-2.6067,-2.6036,-2.6042,-2.6038,-2.6035,-2.6009,-2.6007,-2.6006,-2.6016,-2.5989,-2.5989,-2.5989,-2.5989,-2.6052,-2.6054,0,0,0,0,0,0,-2.6112,-2.6106,-2.6097,-2.6095,-2.6087,-2.6066,-2.6062,-2.6062,-2.6036,-2.603,-2.6036,-2.6033,-2.6007,-2.6006,-2.6004,-2.6039,-2.5989,-2.5989,-2.5989,-2.6051,-2.6053,-2.6054,0,0,0,0,0,0,-2.6112,-2.6112,-2.6098,-2.61,-2.6097,-2.6068,-2.6068,-2.6062,-2.606,-2.6032,-2.6026,-2.604,-2.6006,-2.6004,-2.6017,-2.6037,-2.5989,-2.5989,-2.6049,-2.6051,-2.6054,-2.6108,0,0,0,0,0,0,-2.6113,-2.6112,-2.6123,-2.61,-2.6097,-2.6111,-2.607,-2.6063,-2.6061,-2.6056,-2.6034,-2.6028,-2.6005,-2.6017,-2.6017,-2.6036,-2.5989,-2.6047,-2.605,-2.6053,-2.6105,-2.6112,-2.6119,0,0,0,0,0,-2.6114,-2.6139,-2.6124,-2.6123,-2.6111,-2.6113,-2.6111,-2.6084,-2.6063,-2.6074,-2.6056,-2.6029,-2.6036,-2.6018,-2.6018,-2.6038,-2.6045,-2.6049,-2.6053,-2.6101,-2.6111,-2.6119,0,0,0,0,0,0,-2.6164,-2.6136,-2.6119,-2.6138,-2.6128,-2.6104,-2.6116,-2.6094,-2.609,-2.6085,-2.6051,-2.6047,-2.6064,-2.6052,-2.6034,-2.6067,-2.6036,-2.604,-2.6074,-2.6082,-2.609,-2.6091,-2.5989,0,0,0,0,0,-2.6178,-2.6182,-2.6157,-2.6176,-2.6173,-2.6146,-2.6146,-2.6126,-2.6114,-2.6109,-2.6092,-2.6082,-2.6081,-2.6082,-2.608,-2.6104,-2.6098,-2.6117,-2.6125,-2.6131,-2.6134,-2.6146,-2.6154,-2.6066,-2.6066,-2.6066,0,0,-2.6206,-2.6191,-2.6195,-2.6186,-2.6176,-2.6181,-2.6142,-2.6149,-2.6152,-2.611,-2.6121,-2.6109,-2.6094,-2.6113,-2.612,-2.6104,-2.6157,-2.6136,-2.6141,-2.614,-2.6151,-2.6159,-2.6167,-2.6069,-2.6068,-2.6068,0,0,-2.6258,-2.6248,-2.6263,-2.6255,-2.6241,-2.6223,-2.6227,-2.6207,-2.6197,-2.6208,-2.6177,-2.618,-2.618,-2.6172,-2.6167,-2.622,-2.6195,-2.6221,-2.6258,-2.627,-2.6277,-2.6283,-2.6302,-2.6309,-2.6224,-2.6224,-2.6225,0,-2.6294,-2.63,-2.6273,-2.6282,-2.628,-2.6244,-2.6259,-2.6252,-2.6238,-2.6237,-2.622,-2.622,-2.6208,-2.6224,-2.6238,-2.6236,-2.6239,-2.6222,-2.6279,-2.6284,-2.6289,-2.6306,-2.6314,-2.6228,-2.6227,-2.6227,-2.6227,0,-2.6345,-2.635,-2.6364,-2.6353,-2.6352,-2.6364,-2.6339,-2.6342,-2.6323,-2.6308,-2.632,-2.6305,-2.6299,-2.6302,-2.6284,-2.6317,-2.6307,-2.6285,-2.6252,-2.6301,-2.6317,-2.6323,-2.6232,-2.6231,-2.623,-2.6229,0,0,-2.6425,-2.6401,-2.6407,-2.6402,-2.6385,-2.6389,-2.64,-2.6396,-2.6399,-2.6392,-2.64,-2.6402,-2.6382,-2.6377,-2.6358,-2.6369,-2.6412,-2.6346,-2.6345,-2.6358,-2.6447,-2.6463,-2.6471,-2.6397,-2.6398,-2.6399,-2.6448,0,-2.6473,-2.6491,-2.6468,-2.6491,-2.6495,-2.6463,-2.6473,-2.6464,-2.6451,-2.6453,-2.6438,-2.644,-2.6414,-2.6411,-2.6421,-2.6405,-2.6429,-2.6401,-2.6403,-2.6404,-2.6406,-2.6479,-2.6495,-2.6542,-2.6454,-2.6455,-2.6456,0,-2.653,-2.6527,-2.655,-2.6534,-2.6535,-2.6545,-2.654,-2.6543,-2.6533,-2.6522,-2.6519,-2.6497,-2.6507,-2.6478,-2.6491,-2.6473,-2.6473,-2.6465,-2.6466,-2.6464,-2.6431,-2.6477,-2.6556,-2.6563,-2.6465,-2.6465,-2.6464,0,-2.6586,-2.6587,-2.6602,-2.6599,-2.658,-2.6588,-2.658,-2.6569,-2.6569,-2.6565,-2.6564,-2.6562,-2.656,-2.6559,-2.6537,-2.6518,-2.6553,-2.6522,-2.6544,-2.6544,-2.655,-2.655,-2.6629,-2.6554,-2.6554,-2.6554,-2.6553,0,-2.664,-2.6655,-2.6626,-2.6635,-2.6652,-2.6626,-2.6644,-2.6633,-2.6624,-2.663,-2.6602,-2.6609,-2.658,-2.6583,-2.6566,-2.658,-2.658,-2.6571,-2.6566,-2.6573,-2.6574,-2.657,-2.6566,-2.6555,-2.6555,-2.6555,-2.6554,0,-2.6703,-2.6685,-2.6698,-2.6681,-2.6677,-2.669,-2.6675,-2.6682,-2.6669,-2.6677,-2.6677,-2.6655,-2.6658,-2.6637,-2.6635,-2.6624,-2.6645,-2.6635,-2.6649,-2.6645,-2.6668,-2.6666,-2.6746,-2.6756,-2.6676,-2.6677,-2.6677,0,-2.6738,-2.6749,-2.6734,-2.6737,-2.6731,-2.6736,-2.6736,-2.6713,-2.6714,-2.6705,-2.6713,-2.6714,-2.6713,-2.672,-2.6703,-2.6702,-2.6691,-2.672,-2.6691,-2.6697,-2.669,-2.6689,-2.669,-2.6725,-2.6726,-2.6727,-2.6728,0,-2.6802,-2.6793,-2.6794,-2.6794,-2.6795,-2.6793,-2.6788,-2.6792,-2.6767,-2.677,-2.6773,-2.6773,-2.6773,-2.6774,-2.677,-2.6762,-2.6741,-2.6738,-2.6743,-2.6748,-2.6755,-2.6751,-2.6664,-2.6735,-2.6734,-2.6734,-2.6733,-2.6733,-2.6851,-2.686,-2.6851,-2.6854,-2.6849,-2.6847,-2.6853,-2.6841,-2.6844,-2.6842,-2.6829,-2.6835,-2.6826,-2.6819,-2.6814,-2.6818,-2.6804,-2.6812,-2.6813,-2.6815,-2.6819,-2.6757,-2.6818,-2.6818,-2.6817,-2.6817,-2.6817,0,-2.6913,-2.6906,-2.691,-2.6905,-2.6908,-2.689,-2.6885,-2.6888,-2.6894,-2.6889,-2.6889,-2.6894,-2.6896,-2.6881,-2.6881,-2.6887,-2.6877,-2.6888,-2.6886,-2.6885,-2.6831,-2.6827,-2.6896,-2.6896,-2.6896,-2.6896,-2.6896,-2.6896,-2.6945,-2.6959,-2.6949,-2.6961,-2.6955,-2.6961,-2.696,-2.6957,-2.6953,-2.6959,-2.6961,-2.6952,-2.6943,-2.6943,-2.6944,-2.6939,-2.694,-2.6954,-2.6946,-2.6896,-2.6888,-2.6881,-2.6876,-2.6954,-2.6954,-2.6998,-2.6999,-2.6999]},{"header":{"parameterUnit":"m.s-1","parameterCategory":1,"la1":30.2991,"la2":30.254,"lo1":-89.0895,"lo2":-89.0444,"dy":0.0017,"dx":0.0017,"nx":28,"ny":28,"refTime":"2025-08-04T03:00:00:Z","depth":0,"parameterNumber":3,"parameterNumberName":"V-component_of_WINDS"},"data":[0,0,0,0,0,0,0,0,0,0,0,0,0,0,0,0,0,0,0,0,0,0,0,0,0,0,0,0,0,0,0,0,0,0,0,0,0,0,0,0,0,0,0,0,0,0,0,0,0,0,0,0,0,0,0,0,0,0,-0.3132,-0.3133,0,-0.3207,-0.3207,-0.3208,-0.3194,-0.3193,-0.3191,-0.319,-0.3273,-0.3276,-0.328,0,0,0,0,0,0,0,0,0,0,0,0,0,-0.2983,-0.2986,-0.3132,-0.3133,-0.3134,-0.3206,-0.3208,-0.3209,-0.3194,-0.3193,-0.3191,-0.319,-0.3272,-0.3276,-0.328,0,0,0,0,0,0,0,0,0,0,0,0,0,-0.3052,-0.2987,-0.3132,-0.3135,-0.3136,-0.3206,-0.3208,-0.3209,-0.3195,-0.3193,-0.3191,-0.3189,-0.3271,-0.3276,-0.3281,-0.3354,0,0,-0.3297,-0.3299,0,0,0,0,0,0,0,0,-0.3048,-0.3057,-0.3134,-0.3135,-0.3136,-0.3189,-0.3185,-0.3258,-0.3195,-0.3173,-0.319,-0.3188,-0.3247,-0.3254,-0.3273,-0.3358,-0.3361,-0.3297,-0.33,-0.3303,-0.3304,0,0,0,0,0,0,0,-0.3043,-0.3054,-0.3162,-0.3135,-0.3137,-0.3135,-0.3143,-0.3199,-0.3221,-0.3175,-0.3174,-0.3182,-0.3248,-0.3268,-0.3275,-0.3362,-0.3297,-0.3302,-0.3305,-0.3307,-0.3512,-0.3514,0,0,0,0,0,0,-0.3036,-0.305,-0.3159,-0.3164,-0.3086,-0.314,-0.3148,-0.3174,-0.322,-0.3225,-0.3184,-0.3181,-0.326,-0.3269,-0.3278,-0.3367,-0.3303,-0.3307,-0.331,-0.351,-0.3513,-0.3515,0,0,0,0,0,0,-0.3033,-0.3046,-0.3156,-0.3107,-0.3121,-0.3144,-0.3174,-0.3177,-0.3197,-0.3227,-0.3232,-0.32,-0.3259,-0.327,-0.3335,-0.337,-0.331,-0.3315,-0.3507,-0.3511,-0.3514,-0.3546,0,0,0,0,0,0,-0.3029,-0.3045,-0.3072,-0.3107,-0.3123,-0.321,-0.3176,-0.318,-0.3205,-0.3203,-0.3244,-0.3249,-0.3258,-0.3327,-0.334,-0.3376,-0.3319,-0.3504,-0.3509,-0.3513,-0.3542,-0.355,-0.3557,0,0,0,0,0,-0.3024,-0.3079,-0.3073,-0.3086,-0.3157,-0.3212,-0.3222,-0.323,-0.3208,-0.3236,-0.3255,-0.3247,-0.3363,-0.3334,-0.3348,-0.3386,-0.3502,-0.3507,-0.3513,-0.3538,-0.3548,-0.3556,0,0,0,0,0,0,-0.3049,-0.3084,-0.3078,-0.3145,-0.3176,-0.321,-0.3245,-0.324,-0.3278,-0.3275,-0.3285,-0.3294,-0.336,-0.3379,-0.3346,-0.346,-0.343,-0.3438,-0.3445,-0.3454,-0.3462,-0.3456,-0.3323,0,0,0,0,0,-0.3062,-0.3102,-0.3131,-0.3188,-0.3203,-0.3222,-0.3246,-0.3249,-0.3282,-0.3296,-0.332,-0.3354,-0.3398,-0.3427,-0.3469,-0.3544,-0.3554,-0.3577,-0.3585,-0.3591,-0.3598,-0.3641,-0.3652,-0.3532,-0.3532,-0.3532,0,0,-0.309,-0.3114,-0.3139,-0.3194,-0.3218,-0.3261,-0.3233,-0.328,-0.3313,-0.3304,-0.3366,-0.3385,-0.3423,-0.3493,-0.3525,-0.3512,-0.3633,-0.3597,-0.3602,-0.3606,-0.3647,-0.3658,-0.3668,-0.3536,-0.3535,-0.3535,0,0,-0.3163,-0.3185,-0.3235,-0.3259,-0.3295,-0.3307,-0.3319,-0.3354,-0.3365,-0.3427,-0.3421,-0.3462,-0.3537,-0.3565,-0.3589,-0.3673,-0.3668,-0.3687,-0.3727,-0.3768,-0.3777,-0.3786,-0.3817,-0.3828,-0.3694,-0.3694,-0.3694,0,-0.3194,-0.3258,-0.3262,-0.331,-0.3335,-0.3326,-0.3378,-0.3402,-0.3451,-0.347,-0.3452,-0.3547,-0.3573,-0.365,-0.367,-0.3689,-0.3705,-0.3683,-0.3775,-0.3784,-0.3792,-0.3822,-0.3833,-0.3696,-0.3696,-0.3696,-0.3696,0,-0.3295,-0.3339,-0.3375,-0.342,-0.345,-0.3499,-0.3513,-0.3543,-0.3543,-0.3558,-0.3622,-0.3652,-0.37,-0.3718,-0.372,-0.3796,-0.3787,-0.3772,-0.3743,-0.3805,-0.3834,-0.3845,-0.3699,-0.3699,-0.3698,-0.3697,0,0,-0.3387,-0.3433,-0.3447,-0.3467,-0.3506,-0.3541,-0.3592,-0.3637,-0.3662,-0.3697,-0.374,-0.3804,-0.3791,-0.3818,-0.3824,-0.3859,-0.3925,-0.3841,-0.3842,-0.3857,-0.4013,-0.4024,-0.4037,-0.3921,-0.3924,-0.3925,-0.401,0,-0.3465,-0.3551,-0.3556,-0.3635,-0.3677,-0.3669,-0.3713,-0.3743,-0.3758,-0.3797,-0.3814,-0.3859,-0.3838,-0.3855,-0.389,-0.391,-0.3957,-0.3904,-0.3964,-0.3966,-0.3956,-0.4051,-0.4064,-0.4142,-0.4021,-0.4023,-0.4024,0,-0.3568,-0.3603,-0.3685,-0.3718,-0.3736,-0.3775,-0.3817,-0.3854,-0.3889,-0.3897,-0.3927,-0.3927,-0.3981,-0.3948,-0.4023,-0.3987,-0.4012,-0.4026,-0.4029,-0.4036,-0.4,-0.4063,-0.4167,-0.4179,-0.4041,-0.404,-0.4039,0,-0.3628,-0.3696,-0.3754,-0.3772,-0.3812,-0.384,-0.3858,-0.389,-0.3917,-0.3955,-0.3973,-0.4017,-0.4042,-0.4077,-0.409,-0.4064,-0.4165,-0.4133,-0.4175,-0.4175,-0.4198,-0.4196,-0.4309,-0.4212,-0.4211,-0.4211,-0.4211,0,-0.3715,-0.3767,-0.3782,-0.3818,-0.3876,-0.3882,-0.394,-0.3957,-0.3985,-0.4026,-0.4023,-0.4061,-0.4075,-0.4117,-0.4127,-0.4189,-0.42,-0.4209,-0.4212,-0.4211,-0.421,-0.4228,-0.4224,-0.4214,-0.4214,-0.4213,-0.4212,0,-0.3793,-0.3805,-0.3869,-0.3901,-0.391,-0.3951,-0.398,-0.4015,-0.4029,-0.4081,-0.4093,-0.4115,-0.4164,-0.418,-0.4239,-0.4247,-0.4319,-0.4316,-0.4307,-0.4307,-0.4349,-0.4345,-0.4478,-0.4497,-0.4386,-0.4387,-0.4388,0,-0.3849,-0.3888,-0.3923,-0.3949,-0.3968,-0.401,-0.4037,-0.4046,-0.4075,-0.4116,-0.4148,-0.4195,-0.4234,-0.4313,-0.4336,-0.4382,-0.4381,-0.4424,-0.4388,-0.4386,-0.4383,-0.4381,-0.4386,-0.4432,-0.4433,-0.4434,-0.4435,0,-0.3947,-0.3951,-0.3989,-0.4029,-0.4061,-0.4094,-0.4126,-0.4148,-0.4161,-0.4194,-0.4243,-0.4273,-0.4333,-0.4381,-0.4427,-0.4449,-0.4445,-0.4445,-0.4458,-0.4458,-0.4451,-0.4456,-0.4327,-0.4443,-0.4442,-0.4441,-0.4441,-0.4441,-0.4016,-0.4051,-0.4081,-0.4124,-0.4148,-0.4178,-0.4213,-0.423,-0.427,-0.4318,-0.4321,-0.4375,-0.4409,-0.4471,-0.4494,-0.4537,-0.4525,-0.4543,-0.4548,-0.4552,-0.4556,-0.4443,-0.4546,-0.4545,-0.4545,-0.4545,-0.4545,0,-0.4115,-0.4134,-0.4173,-0.4216,-0.4251,-0.4241,-0.4276,-0.4306,-0.4352,-0.4383,-0.4421,-0.4478,-0.4524,-0.455,-0.4597,-0.4627,-0.4627,-0.4639,-0.4638,-0.4643,-0.4563,-0.4548,-0.4639,-0.4639,-0.4639,-0.4639,-0.4639,-0.4639,-0.417,-0.4228,-0.4236,-0.4307,-0.4326,-0.4376,-0.4397,-0.4425,-0.445,-0.4513,-0.4551,-0.4566,-0.4596,-0.4645,-0.4688,-0.4695,-0.4713,-0.4728,-0.4733,-0.4658,-0.4649,-0.464,-0.4626,-0.4731,-0.4731,-0.481,-0.481,-0.4811]}]]